User: anonymous   Login
Location: Ostrava
(49.8330°N, 18.2830°E)
Time: 00:16:18
(UTC+02:00)
Language:

Cosmos 1400 Rocket - Orbit

View from above orbital plane
View from above orbital plane
View from above satellite
View from above satellite

Ground track
Ground track

The orbit data is extracted from the following two-line orbital elements,

1 13403U 82079B   17290.19115095  .00000169  00000-0  96915-5 0  9998
2 13403  81.1678 129.6024 0033226 234.7039 125.1077 15.06690065915097
Epoch (UTC): 17 October 2017 04:35:15
Eccentricity: 0.0033226
inclination: 81.1678°
perigee height: 523 km
apogee height: 569 km
right ascension of ascending node: 129.6024°
argument of perigee: 234.7039°
revolutions per day: 15.06690065
mean anomaly at epoch: 125.1077°
orbit number at epoch: 91509

The dashed part of the orbit path shows where the satellite is in the earth's shadow,  

DLR